This demonstration page uses our WeatherBlox Daily Observations layout. Learn more.

Left ArrowRight Arrow

Hourly Observations for May 9, 2017

Temp ( °F °C ) Dew Point ( °F °C ) Humidity (%) Winds ( mph kmh ) Pressure ( in mb ) Visibility ( mi km ) Precip ( " mm )
12:56 am 00:56 Clear 65 18.6 57 13.7 73 73 NW 6 9 29.89 1012 10 16 0.00 0.00
1:56 am 01:56 Clear 63 17.3 55 13 76 76 WNW 6 9 29.89 1012 10 16 0.00 0.00
2:56 am 02:56 Mostly Clear 64 17.5 55 12.8 74 74 WNW 5 7 29.90 1012 10 16 0.00 0.00
3:56 am 03:56 Clear 61 16.3 55 12.6 79 79 NW 7 11 29.90 1013 10 16 0.00 0.00
4:56 am 04:56 Clear 60 15.5 54 12.4 82 82 NW 7 11 29.90 1012 10 16 0.00 0.00
5:56 am 05:56 Clear 59 14.9 53 11.8 82 82 NW 5 7 29.91 1013 10 16 0.00 0.00
6:56 am 06:56 Sunny 60 15.7 53 11.5 76 76 NNW 6 9 29.94 1014 10 16 0.00 0.00
7:56 am 07:56 Sunny 61 16.1 51 10.4 69 69 N 7 11 29.95 1014 10 16 0.00 0.00
8:56 am 08:56 Sunny 63 17.2 50 10.1 63 63 NNE 13 20 29.95 1014 10 16 0.00 0.00
9:56 am 09:56 Sunny 66 18.7 51 10.8 60 60 N 7 11 29.94 1014 10 16 0.00 0.00
10:56 am 10:56 Sunny 69 20.6 51 10.7 53 53 N 10 17 29.94 1014 10 16 0.00 0.00
11:56 am 11:56 Sunny 71 21.7 51 10.5 49 49 NNE 7 11 29.91 1013 10 16 0.00 0.00
12:56 pm 12:56 Sunny 73 23 52 11.1 47 47 NE 3 6 29.88 1012 10 16 0.00 0.00
1:56 pm 13:56 Mostly Sunny 77 24.9 54 12.1 45 45 E 8 13 29.85 1011 10 16 0.00 0.00
2:56 pm 14:56 Sunny 79 26 54 12.1 42 42 N 9 15 29.83 1010 10 16 0.00 0.00
3:56 pm 15:56 Sunny 80 26.7 54 12 40 40 NW 5 7 29.83 1010 10 16 0.00 0.00
4:56 pm 16:56 Mostly Sunny 81 27.3 53 11.7 38 38 WSW 3 6 29.80 1009 10 16 0.00 0.00
5:56 pm 17:56 Partly Cloudy 80 26.6 54 12.2 41 41 Calm 29.80 1009 10 16 0.00 0.00
6:56 pm 18:56 Sunny 77 25 57 14.1 51 51 Calm 29.77 1008 10 16 0.00 0.00
7:56 pm 19:56 Sunny 76 24.3 54 12.2 47 47 N 5 7 29.77 1008 10 16 0.00 0.00
8:56 pm 20:56 Clear 73 22.5 53 11.8 51 51 N 6 9 29.83 1010 10 16 0.00 0.00
9:56 pm 21:56 Clear 72 22.2 44 6.8 37 37 N 15 24 29.85 1011 10 16 0.00 0.00
10:56 pm 22:56 Clear 67 19.6 45 7 44 44 N 7 11 29.87 1011 10 16 0.00 0.00
11:56 pm 23:56 Mostly Cloudy 66 18.7 46 7.5 48 48 NNE 12 19 29.85 1011 10 16 0.00 0.00

Powered by AerisWeather